AAL743 KDFW-KMSY

Flight info

Callsign AAL743
Flight time 1h 3m
Altitude 35000
Route MRSSH3 ZALEA SWEUP LSU AWDAD1
Aircraft B738/M-SDE2E3FGHIRWXY/LB1

Departure

Time 2026-05-06 04:30
Airport Dallas Fort Worth International Airport (KDFW)

Arrival

Time 2026-05-06 05:33
Airport Louis Armstrong New Orleans International Airport (KMSY)
Time Latitude Longitude Altitude Speed Heading
2026-05-06 04:12 32.89680 -97.03510 586 ft 0 kts 288°
2026-05-06 04:21 32.89677 -97.03500 586 ft 4 kts 288°
2026-05-06 04:21 32.89670 -97.03474 586 ft 2 kts 288°
2026-05-06 04:22 32.89663 -97.03446 586 ft 4 kts 277°
2026-05-06 04:22 32.89664 -97.03414 586 ft 4 kts 250°
2026-05-06 04:22 32.89667 -97.03404 586 ft 0 kts 243°
2026-05-06 04:24 32.89661 -97.03411 586 ft 5 kts 219°
2026-05-06 04:24 32.89595 -97.03401 586 ft 11 kts 154°
2026-05-06 04:24 32.89576 -97.03357 586 ft 6 kts 100°
2026-05-06 04:25 32.89550 -97.03318 585 ft 8 kts 160°
2026-05-06 04:25 32.89470 -97.03317 585 ft 15 kts 180°
2026-05-06 04:25 32.89355 -97.03318 583 ft 18 kts 180°
2026-05-06 04:25 32.89230 -97.03318 582 ft 18 kts 180°
2026-05-06 04:26 32.89107 -97.03318 582 ft 18 kts 179°
2026-05-06 04:26 32.88978 -97.03320 581 ft 19 kts 181°
2026-05-06 04:26 32.88841 -97.03322 582 ft 20 kts 180°
2026-05-06 04:26 32.88705 -97.03321 582 ft 19 kts 180°
2026-05-06 04:27 32.88572 -97.03322 578 ft 20 kts 180°
2026-05-06 04:27 32.88472 -97.03294 574 ft 13 kts 165°
2026-05-06 04:27 32.88383 -97.03289 576 ft 13 kts 180°
2026-05-06 04:27 32.88293 -97.03289 576 ft 14 kts 180°
2026-05-06 04:28 32.88179 -97.03289 574 ft 17 kts 180°
2026-05-06 04:28 32.88062 -97.03291 578 ft 17 kts 180°
2026-05-06 04:28 32.87979 -97.03253 576 ft 13 kts 107°
2026-05-06 04:28 32.87976 -97.03149 577 ft 13 kts 90°
2026-05-06 04:29 32.87981 -97.03038 572 ft 14 kts 68°
2026-05-06 04:29 32.88068 -97.03007 577 ft 16 kts
2026-05-06 04:29 32.88384 -97.03005 571 ft 79 kts
2026-05-06 04:29 32.89137 -97.03002 574 ft 134 kts
2026-05-06 04:30 32.90206 -97.02991 660 ft 168 kts
2026-05-06 04:30 32.91403 -97.02984 1227 ft 175 kts 359°
2026-05-06 04:30 32.92622 -97.02948 1879 ft 181 kts 11°
2026-05-06 04:30 32.93921 -97.02498 2116 ft 206 kts 16°
2026-05-06 04:31 32.95380 -97.01994 2233 ft 233 kts 15°
2026-05-06 04:31 32.97019 -97.01438 2396 ft 259 kts 16°
2026-05-06 04:31 32.98623 -97.00401 3150 ft 259 kts 38°
2026-05-06 04:31 32.99893 -96.98864 3976 ft 267 kts 52°
2026-05-06 04:32 33.00948 -96.97025 4529 ft 278 kts 49°
2026-05-06 04:32 33.02034 -96.95074 5089 ft 289 kts 71°
2026-05-06 04:32 33.02217 -96.92864 5756 ft 291 kts 97°
2026-05-06 04:32 33.01927 -96.90456 6441 ft 296 kts 105°
2026-05-06 04:33 33.01513 -96.88029 7134 ft 302 kts 102°
2026-05-06 04:33 33.01006 -96.85608 7842 ft 302 kts 121°
2026-05-06 04:33 32.99756 -96.83626 8550 ft 300 kts 134°
2026-05-06 04:33 32.98448 -96.81659 9251 ft 306 kts 132°
2026-05-06 04:34 32.97159 -96.79616 9978 ft 311 kts 131°
2026-05-06 04:34 32.95881 -96.77534 10516 ft 324 kts 131°
2026-05-06 04:34 32.94513 -96.75279 10755 ft 346 kts 131°
2026-05-06 04:34 32.93110 -96.72934 11327 ft 354 kts 130°
2026-05-06 04:35 32.91684 -96.70526 12075 ft 357 kts 131°
2026-05-06 04:35 32.90256 -96.68104 12849 ft 360 kts 131°
2026-05-06 04:35 32.88805 -96.65644 13533 ft 366 kts 132°
2026-05-06 04:35 32.87331 -96.63148 14200 ft 372 kts 132°
2026-05-06 04:36 32.85829 -96.60607 14876 ft 379 kts 132°
2026-05-06 04:36 32.84362 -96.58126 15538 ft 384 kts 132°
2026-05-06 04:36 32.82779 -96.55447 16271 ft 389 kts 132°
2026-05-06 04:36 32.81210 -96.52796 16919 ft 395 kts 133°
2026-05-06 04:37 32.79618 -96.50109 17549 ft 401 kts 133°
2026-05-06 04:37 32.78004 -96.47383 18213 ft 406 kts 133°
2026-05-06 04:37 32.76543 -96.44918 18774 ft 410 kts 133°
2026-05-06 04:37 32.74892 -96.42133 19389 ft 415 kts 133°
2026-05-06 04:38 32.73220 -96.39314 20015 ft 419 kts 133°
2026-05-06 04:38 32.71528 -96.36469 20613 ft 424 kts 133°
2026-05-06 04:38 32.69992 -96.33418 21128 ft 442 kts 117°
2026-05-06 04:38 32.69314 -96.30034 21654 ft 456 kts 99°
2026-05-06 04:39 32.69061 -96.26318 22246 ft 459 kts 97°
2026-05-06 04:39 32.68865 -96.22712 22696 ft 465 kts 96°
2026-05-06 04:39 32.68655 -96.18757 23150 ft 470 kts 97°
2026-05-06 04:39 32.68433 -96.14873 23632 ft 474 kts 97°
2026-05-06 04:40 32.68191 -96.10948 24095 ft 478 kts 97°
2026-05-06 04:40 32.67932 -96.06987 24531 ft 483 kts 97°
2026-05-06 04:40 32.67662 -96.03000 24972 ft 487 kts 97°
2026-05-06 04:40 32.67387 -95.98982 25398 ft 491 kts 97°
2026-05-06 04:41 32.67110 -95.94935 25844 ft 494 kts 97°
2026-05-06 04:41 32.66831 -95.90858 26271 ft 497 kts 97°
2026-05-06 04:41 32.66549 -95.86752 26644 ft 501 kts 97°
2026-05-06 04:41 32.66264 -95.82617 27001 ft 505 kts 97°
2026-05-06 04:42 32.65972 -95.78438 27355 ft 509 kts 97°
2026-05-06 04:42 32.65678 -95.74237 27709 ft 513 kts 98°
2026-05-06 04:42 32.65380 -95.70006 28065 ft 517 kts 98°
2026-05-06 04:42 32.65079 -95.65746 28412 ft 520 kts 98°
2026-05-06 04:43 32.64776 -95.61465 28785 ft 522 kts 98°
2026-05-06 04:43 32.64469 -95.57152 29100 ft 525 kts 98°
2026-05-06 04:43 32.64159 -95.52826 29397 ft 529 kts 98°
2026-05-06 04:43 32.63850 -95.48521 29708 ft 532 kts 98°
2026-05-06 04:44 32.63533 -95.44132 30041 ft 535 kts 98°
2026-05-06 04:44 32.63213 -95.39720 30363 ft 538 kts 98°
2026-05-06 04:44 32.62889 -95.35287 30609 ft 542 kts 98°
2026-05-06 04:44 32.62562 -95.30822 30847 ft 546 kts 98°
2026-05-06 04:45 32.62231 -95.26326 31119 ft 548 kts 98°
2026-05-06 04:45 32.61898 -95.21810 31435 ft 550 kts 98°
2026-05-06 04:45 32.61563 -95.17297 31857 ft 549 kts 98°
2026-05-06 04:45 32.61228 -95.12796 32274 ft 548 kts 98°
2026-05-06 04:46 32.60890 -95.08292 32625 ft 548 kts 98°
2026-05-06 04:46 32.60551 -95.03791 32947 ft 549 kts 98°
2026-05-06 04:46 32.60208 -94.99281 33249 ft 550 kts 98°
2026-05-06 04:46 32.59863 -94.94752 33548 ft 551 kts 98°
2026-05-06 04:47 32.59515 -94.90222 33862 ft 552 kts 98°
2026-05-06 04:47 32.59169 -94.85696 34216 ft 551 kts 98°
2026-05-06 04:47 32.58821 -94.81177 34606 ft 550 kts 98°
2026-05-06 04:47 32.58405 -94.76686 34843 ft 546 kts 104°
2026-05-06 04:48 32.57458 -94.72360 34854 ft 538 kts 113°
2026-05-06 04:48 32.55012 -94.64073 34844 ft 535 kts 116°
2026-05-06 04:49 32.52471 -94.55776 34837 ft 537 kts 115°
2026-05-06 04:49 32.50033 -94.47406 34847 ft 538 kts 114°
2026-05-06 04:50 32.47655 -94.39004 34845 ft 538 kts 114°
2026-05-06 04:50 32.45277 -94.30590 34846 ft 539 kts 114°
2026-05-06 04:51 32.43289 -94.23605 34841 ft 539 kts 114°
2026-05-06 04:51 32.40887 -94.15206 34845 ft 538 kts 114°
2026-05-06 04:52 32.38481 -94.06822 34851 ft 538 kts 114°
2026-05-06 04:52 32.36071 -93.98449 34857 ft 537 kts 114°
2026-05-06 04:53 32.33664 -93.90104 34869 ft 537 kts 114°
2026-05-06 04:53 32.31249 -93.81756 34859 ft 536 kts 114°
2026-05-06 04:54 32.28829 -93.73415 34864 ft 536 kts 114°
2026-05-06 04:54 32.26402 -93.65072 34868 ft 537 kts 114°
2026-05-06 04:55 32.23973 -93.56743 34881 ft 536 kts 114°
2026-05-06 04:55 32.21539 -93.48415 34882 ft 536 kts 114°
2026-05-06 04:56 32.19122 -93.40236 34884 ft 536 kts 115°
2026-05-06 04:56 32.16644 -93.31934 34881 ft 536 kts 114°
2026-05-06 04:57 32.14162 -93.23634 34880 ft 536 kts 114°
2026-05-06 04:57 32.11681 -93.15341 34890 ft 536 kts 114°
2026-05-06 04:58 32.09194 -93.07050 34894 ft 536 kts 114°
2026-05-06 04:58 32.06700 -92.98756 34886 ft 537 kts 114°
2026-05-06 04:59 32.04201 -92.90471 34890 ft 536 kts 114°
2026-05-06 04:59 32.01697 -92.82188 34899 ft 536 kts 114°
2026-05-06 05:00 31.99166 -92.73934 34891 ft 534 kts 118°
2026-05-06 05:00 31.95414 -92.66594 34913 ft 517 kts 137°
2026-05-06 05:01 31.90301 -92.60852 34910 ft 503 kts 151°
2026-05-06 05:01 31.84777 -92.55754 34896 ft 506 kts 151°
2026-05-06 05:02 31.79272 -92.50649 34905 ft 508 kts 150°
2026-05-06 05:02 31.73745 -92.45458 34908 ft 509 kts 150°
2026-05-06 05:03 31.68220 -92.40246 34903 ft 509 kts 150°
2026-05-06 05:03 31.62710 -92.35054 34902 ft 507 kts 150°
2026-05-06 05:03 31.59964 -92.32472 34684 ft 506 kts 150°
2026-05-06 05:04 31.57224 -92.29898 34428 ft 503 kts 150°
2026-05-06 05:04 31.54499 -92.27339 34182 ft 501 kts 150°
2026-05-06 05:04 31.51778 -92.24791 33947 ft 503 kts 150°
2026-05-06 05:04 31.49030 -92.22221 33700 ft 505 kts 150°
2026-05-06 05:05 31.46278 -92.19651 33455 ft 506 kts 150°
2026-05-06 05:05 31.43527 -92.17079 33209 ft 507 kts 150°
2026-05-06 05:05 31.40768 -92.14502 32960 ft 508 kts 150°
2026-05-06 05:05 31.38006 -92.11922 32714 ft 508 kts 150°
2026-05-06 05:06 31.35247 -92.09346 32464 ft 508 kts 150°
2026-05-06 05:06 31.32483 -92.06768 32221 ft 507 kts 150°
2026-05-06 05:06 31.29729 -92.04201 31973 ft 507 kts 150°
2026-05-06 05:06 31.26976 -92.01638 31722 ft 506 kts 150°
2026-05-06 05:07 31.24222 -91.99076 31473 ft 505 kts 150°
2026-05-06 05:07 31.21508 -91.96553 31225 ft 505 kts 149°
2026-05-06 05:07 31.18720 -91.93965 30976 ft 506 kts 149°
2026-05-06 05:07 31.15998 -91.91441 30736 ft 507 kts 149°
2026-05-06 05:08 31.13238 -91.88884 30483 ft 507 kts 149°
2026-05-06 05:08 31.10471 -91.86321 30235 ft 508 kts 149°
2026-05-06 05:08 31.07705 -91.83760 29989 ft 508 kts 149°
2026-05-06 05:08 31.04938 -91.81199 29751 ft 507 kts 149°
2026-05-06 05:09 31.02178 -91.78646 29493 ft 506 kts 149°
2026-05-06 05:09 30.99427 -91.76103 29240 ft 504 kts 149°
2026-05-06 05:09 30.96687 -91.73572 28990 ft 501 kts 148°
2026-05-06 05:09 30.93964 -91.71059 28739 ft 498 kts 148°
2026-05-06 05:10 30.91256 -91.68562 28486 ft 495 kts 148°
2026-05-06 05:10 30.88557 -91.66076 28234 ft 492 kts 148°
2026-05-06 05:10 30.85882 -91.63614 27981 ft 490 kts 148°
2026-05-06 05:10 30.83215 -91.61162 27732 ft 487 kts 148°
2026-05-06 05:11 30.80559 -91.58722 27484 ft 485 kts 148°
2026-05-06 05:11 30.77912 -91.56292 27237 ft 483 kts 148°
2026-05-06 05:11 30.75282 -91.53879 26963 ft 480 kts 148°
2026-05-06 05:11 30.72676 -91.51487 26450 ft 476 kts 148°
2026-05-06 05:12 30.70090 -91.49116 25949 ft 471 kts 148°
2026-05-06 05:12 30.67530 -91.46771 25444 ft 467 kts 148°
2026-05-06 05:12 30.64984 -91.44442 24932 ft 463 kts 148°
2026-05-06 05:12 30.62463 -91.42137 24426 ft 460 kts 148°
2026-05-06 05:13 30.59957 -91.39849 23910 ft 456 kts 148°
2026-05-06 05:13 30.57472 -91.37581 23401 ft 453 kts 147°
2026-05-06 05:13 30.55006 -91.35330 22893 ft 449 kts 147°
2026-05-06 05:13 30.52559 -91.33098 22383 ft 446 kts 147°
2026-05-06 05:14 30.50160 -91.30912 21890 ft 442 kts 147°
2026-05-06 05:14 30.47756 -91.28718 21414 ft 438 kts 147°
2026-05-06 05:14 30.45398 -91.26535 21058 ft 431 kts 146°
2026-05-06 05:14 30.43075 -91.24368 20584 ft 428 kts 146°
2026-05-06 05:15 30.40768 -91.22212 20104 ft 424 kts 146°
2026-05-06 05:15 30.38476 -91.20074 19621 ft 421 kts 146°
2026-05-06 05:15 30.36206 -91.17960 19132 ft 418 kts 146°
2026-05-06 05:15 30.33944 -91.15857 18642 ft 415 kts 146°
2026-05-06 05:16 30.31701 -91.13775 18157 ft 412 kts 146°
2026-05-06 05:16 30.29554 -91.11782 17681 ft 409 kts 146°
2026-05-06 05:16 30.27345 -91.09733 17194 ft 406 kts 145°
2026-05-06 05:16 30.25154 -91.07702 16712 ft 402 kts 145°
2026-05-06 05:17 30.22998 -91.05703 16403 ft 390 kts 145°
2026-05-06 05:17 30.20903 -91.03762 15854 ft 383 kts 145°
2026-05-06 05:17 30.18833 -91.01848 15169 ft 380 kts 144°
2026-05-06 05:17 30.16920 -91.00080 14606 ft 376 kts 144°
2026-05-06 05:18 30.14929 -90.98238 14459 ft 356 kts 144°
2026-05-06 05:18 30.13135 -90.96512 14274 ft 342 kts 137°
2026-05-06 05:18 30.11829 -90.94242 13863 ft 339 kts 113°
2026-05-06 05:18 30.11285 -90.91631 13449 ft 333 kts 96°
2026-05-06 05:19 30.11069 -90.88979 13033 ft 330 kts 94°
2026-05-06 05:19 30.10891 -90.86343 12623 ft 328 kts 94°
2026-05-06 05:19 30.10713 -90.83728 12197 ft 325 kts 94°
2026-05-06 05:19 30.10526 -90.81128 11684 ft 325 kts 94°
2026-05-06 05:20 30.10329 -90.78535 11108 ft 323 kts 95°
2026-05-06 05:20 30.10128 -90.75958 10531 ft 321 kts 96°
2026-05-06 05:20 30.09927 -90.73435 9963 ft 318 kts 96°
2026-05-06 05:20 30.09724 -90.70901 9389 ft 316 kts 97°
2026-05-06 05:21 30.09402 -90.68410 8859 ft 310 kts 107°
2026-05-06 05:21 30.08858 -90.66107 8452 ft 302 kts 110°
2026-05-06 05:21 30.08260 -90.63810 8024 ft 296 kts 110°
2026-05-06 05:21 30.07681 -90.61554 7597 ft 291 kts 110°
2026-05-06 05:22 30.07130 -90.59328 7170 ft 286 kts 110°
2026-05-06 05:22 30.06600 -90.57136 6896 ft 279 kts 110°
2026-05-06 05:22 30.06059 -90.55038 6825 ft 266 kts 118°
2026-05-06 05:22 30.04947 -90.53497 6728 ft 242 kts 155°
2026-05-06 05:23 30.03413 -90.53092 6664 ft 220 kts 187°
2026-05-06 05:23 30.01927 -90.53318 6406 ft 213 kts 190°
2026-05-06 05:23 29.98980 -90.53808 5604 ft 215 kts 190°
2026-05-06 05:24 29.97555 -90.54264 5184 ft 214 kts 213°
2026-05-06 05:24 29.96692 -90.55621 4800 ft 217 kts 253°
2026-05-06 05:24 29.96807 -90.57360 4420 ft 224 kts 284°
2026-05-06 05:24 29.97269 -90.59072 4072 ft 222 kts 281°
2026-05-06 05:25 29.97689 -90.60805 4035 ft 227 kts 281°
2026-05-06 05:25 29.98258 -90.62501 3993 ft 230 kts 303°
2026-05-06 05:25 29.99553 -90.63514 3986 ft 226 kts 345°
2026-05-06 05:25 30.01036 -90.63332 3996 ft 210 kts 24°
2026-05-06 05:26 30.02319 -90.62637 4026 ft 206 kts 25°
2026-05-06 05:26 30.03602 -90.61929 4030 ft 203 kts 25°
2026-05-06 05:26 30.04873 -90.61222 4003 ft 203 kts 26°
2026-05-06 05:26 30.06000 -90.60289 3993 ft 199 kts 57°
2026-05-06 05:27 30.06730 -90.58958 4011 ft 198 kts 70°
2026-05-06 05:27 30.06819 -90.57451 4027 ft 186 kts 113°
2026-05-06 05:27 30.06413 -90.56020 4007 ft 189 kts 112°
2026-05-06 05:27 30.06049 -90.54563 4009 ft 188 kts 111°
2026-05-06 05:28 30.05696 -90.53117 4019 ft 187 kts 111°
2026-05-06 05:28 30.05338 -90.51649 3811 ft 192 kts 111°
2026-05-06 05:28 30.04981 -90.50173 3582 ft 189 kts 111°
2026-05-06 05:28 30.04630 -90.48723 3363 ft 186 kts 111°
2026-05-06 05:29 30.04286 -90.47303 3123 ft 181 kts 111°
2026-05-06 05:29 30.03950 -90.45919 2900 ft 176 kts 111°
2026-05-06 05:29 30.03633 -90.44608 2702 ft 163 kts 110°
2026-05-06 05:29 30.03342 -90.43404 2508 ft 152 kts 110°
2026-05-06 05:30 30.03062 -90.42253 2319 ft 146 kts 110°
2026-05-06 05:30 30.02790 -90.41131 2140 ft 145 kts 110°
2026-05-06 05:30 30.02517 -90.40005 1963 ft 146 kts 109°
2026-05-06 05:30 30.02248 -90.38891 1782 ft 145 kts 109°
2026-05-06 05:31 30.01979 -90.37777 1601 ft 144 kts 109°
2026-05-06 05:31 30.01711 -90.36670 1424 ft 142 kts 108°
2026-05-06 05:31 30.01448 -90.35580 1257 ft 143 kts 108°
2026-05-06 05:31 30.01179 -90.34463 1079 ft 142 kts 107°
2026-05-06 05:32 30.00917 -90.33380 898 ft 141 kts 107°
2026-05-06 05:32 30.00654 -90.32292 716 ft 141 kts 107°
2026-05-06 05:32 30.00392 -90.31201 584 ft 142 kts 105°
2026-05-06 05:32 30.00143 -90.30097 398 ft 142 kts 108°
2026-05-06 05:33 29.99866 -90.29004 216 ft 139 kts 105°
2026-05-06 05:33 29.99609 -90.27946 31 ft 136 kts 106°
2026-05-06 05:33 29.99374 -90.26976 9 ft 107 kts 105°
2026-05-06 05:33 29.99236 -90.26410 7 ft 41 kts 105°
2026-05-06 05:34 29.99161 -90.26087 5 ft 40 kts 105°
2026-05-06 05:34 29.99108 -90.25866 7 ft 24 kts 105°
2026-05-06 05:34 29.99073 -90.25691 6 ft 16 kts 84°
2026-05-06 05:34 29.99135 -90.25634 5 ft 12 kts 16°
2026-05-06 05:35 29.99208 -90.25646 4 ft 11 kts 302°
2026-05-06 05:35 29.99216 -90.25736 3 ft 11 kts 283°
2026-05-06 05:35 29.99244 -90.25818 3 ft 11 kts 319°
2026-05-06 05:35 29.99314 -90.25829 3 ft 8 kts 25°
2026-05-06 05:36 29.99330 -90.25798 4 ft 4 kts 72°
2026-05-06 05:36 29.99336 -90.25767 5 ft 4 kts 78°
2026-05-06 05:36 29.99337 -90.25762 5 ft 0 kts 77°